Regional Weather Roundup
Issued by NWS State College, PA

Home | Current Version | Previous Version | Text Only | Print | Product List | Glossary On
Versions: 1 2 3 4 5 6 7 8 9 10 11 12 13 14 15 16 17 18 19 20 21 22 23 24 25 26 27 28 29 30 31 32 33 34 35 36 37 38 39 40 41 42 43 44 45 46 47 48 49 50
000
ASUS41 KCTP 030810
RWRCTP

REGIONAL WEATHER ROUNDUP
NATIONAL WEATHER SERVICE STATE COLLEGE PA
300 AM EST TUE MAR 03 2015

Note: "fair" indicates few or no clouds below 12,000 feet with no
significant weather and/or obstructions to visibility.

* = STATION THAT DOES NOT REPORT PRECIPITATION /E.G. RAIN...SNOW...ETC/
    THUNDER OR FOG.

PAZ002>004-007>009-013>016-020>023-029>032-030900-
WESTERN PENNSYLVANIA

CITY           SKY/WX    TMP DP  RH WIND       PRES   REMARKS
ERIE           MOCLDY    15   8  73 S6        30.35F WCI   6
MEADVILLE        N/A     16   8  71 SE3       30.29F
FRANKLIN*      MOCLDY    12   7  79 CALM      30.30F
NEW CASTLE     FAIR      15  10  80 CALM      30.33F
BEAVER COUNTY  NOT AVBL
BUTLER*        MOCLDY    18   9  68 SE6       30.32F WCI   9
PITTSBURGH INT CLOUDY    19  13  77 E5        30.30F HAZE    WCI  12
PITTSBURGH     CLOUDY    20  11  68 E6        30.30F WCI  12
INDIANA*       MOCLDY    14  10  85 CALM      30.34F
LATROBE        MOCLDY    18  18 100 CALM      30.33F
WASHINGTON CO* MOCLDY    16  12  86 CALM      30.31F
$$

PAZ004>006-010>012-017>019-024>028-033>037-041-042-045-046-049>053-030900-
CENTRAL PENNSYLVANIA

CITY           SKY/WX    TMP DP  RH WIND       PRES   REMARKS
BRADFORD       PTCLDY    -2  -7  79 E3        30.26F
DUBOIS         MOCLDY    11   7  84 E3        30.27F
CLEARFIELD     MOCLDY     7   3  84 CALM      30.32F
JOHNSTOWN      MOCLDY    15  10  80 E3        30.23F
ALTOONA        MOCLDY    14   8  77 CALM      30.32F
STATE COLLEGE  MOCLDY    13   5  70 CALM      30.36R
WILLIAMSPORT   CLEAR     13   5  70 CALM      30.40F
SELINSGROVE    CLEAR     10   4  76 CALM      30.41F
FT INDIANTOWN  PTCLDY    20   6  54 VRB3      30.39S
CAPITAL CITY   PTCLDY    19  12  74 NW3       30.39F
HARRISBURG     MOCLDY    19  12  74 CALM      30.40S
YORK           PTCLDY    15  10  80 NW3       30.38S
$$

PAZ038>040-043-044-047-048-054-055-060>062-067>071-030900-
EASTERN PENNSYLVANIA

CITY           SKY/WX    TMP DP  RH WIND       PRES   REMARKS
SCRANTON       CLEAR     15   6  67 CALM      30.35S
MOUNT POCONO   CLEAR     12   4  70 NW3       30.26S
ALLENTOWN      CLEAR     17   6  62 NW5       30.40S WCI  10
QUAKERTOWN*    SUNNY     19   9  63 CALM      30.39F
READING        CLEAR     20   5  52 N5        30.40S WCI  13
LANCASTER      PTCLDY    20   8  60 NE7       30.39F WCI  11
COATESVILLE    SUNNY     25  10  54 CALM      30.38R
POTTSTOWN      CLEAR     22   7  52 N9        30.41F WCI  12
BLUE BELL      CLEAR     27  12  54 N3        30.39F
DOYLESTOWN     CLEAR     20   8  60 NW3       30.38F
WILLOW GROVE   NOT AVBL
NORTH PHILA    CLEAR     26   8  46 N8        30.43S
PHILADELPHIA   PTCLDY    27   9  46 N12       30.43S
$$



USA.gov is the U.S. government's official web portal to all federal, state and local government web resources and services.